Wind_Speed
2 3 3 3 3 4 4 5 5 4 4 5 5 4 4 4 4 4 4 4 4 5 5 4 4 4 4 4 4 4 4 4 4 5 5 6 6 6 6 7 7 8 8
0 1 1 1 2 2 3 3 4 4 3 4 5 5 5 5 5 5 5 5 5 5 5 5 4 4 4 5 5 5 6 6 6 6 7 7 7 7 7 8 9 9 10
2 1 1 1 1 1 2 2 3 4 4 4 4 5 5 6 6 6 6 6 6 6 6 6 5 6 6 6 6 6 7 7 7 8 8 8 9 9 9 10 10 11 12
2 2 2 3 2 1 1 2 3 4 5 5 4 5 5 6 7 7 7 7 7 7 7 7 7 7 8 7 8 8 8 8 9 9 10 10 11 11 11 12 12 12 13
4 3 2 3 3 2 2 3 3 5 5 5 6 6 6 7 8 8 8 8 8 8 8 8 8 9 9 9 9 9 9 10 10 10 10 11 11 12 13 13 13 14 14
7 6 5 4 4 5 5 5 5 5 6 6 6 7 7 8 9 9 9 9 10 9 9 9 9 10 10 10 10 11 11 11 12 12 12 12 13 13 14 15 15 15 16
9 8 7 6 6 7 7 7 7 7 7 7 7 7 8 9 10 10 10 11 11 11 11 11 11 11 11 12 12 12 13 13 13 13 14 14 14 15 16 16 17 17 17
10 10 10 10 9 8 8 8 8 8 8 8 8 8 9 10 10 11 11 12 12 12 12 12 12 13 13 14 14 14 14 14 14 14 15 15 15 16 17 17 17 18 18
12 12 11 11 10 10 10 10 10 10 10 10 9 10 10 11 11 12 12 13 14 14 14 14 15 15 15 15 14 14 15 16 16 16 16 16 17 17 17 17 18 18 18
13 13 13 13 13 13 12 12 12 12 12 11 11 11 12 13 13 14 14 15 15 16 15 16 16 16 16 16 16 16 16 16 16 16 17 17 18 18 18 18 19 19 19
14 14 14 14 14 14 14 13 13 13 13 13 13 13 14 15 15 16 17 17 18 17 17 17 18 18 18 18 18 18 18 17 18 18 18 19 19 19 20 20 20 20 21
15 15 15 15 15 15 15 15 15 15 14 15 16 15 16 16 17 18 19 20 20 20 20 20 20 20 20 20 20 20 20 20 20 20 20 20 20 21 21 21 22 22 22
15 16 16 16 16 16 16 17 17 16 16 17 18 18 18 18 19 20 21 22 22 22 23 22 22 22 22 23 22 22 21 21 21 21 21 22 22 21 22 23 22 23 23
17 16 17 17 17 17 17 17 17 17 17 18 19 19 20 20 21 22 23 23 22 22 23 23 23 23 23 24 24 24 23 23 22 23 23 24 24 23 23 24 24 24 24
19 19 19 19 19 19 18 18 18 18 19 19 19 20 20 21 22 22 23 23 23 23 24 24 24 24 24 24 25 25 24 24 25 25 25 25 25 25 25 25 25 25 24
19 20 20 20 21 20 19 19 19 19 19 20 20 21 21 21 22 22 23 23 23 24 24 25 25 25 25 25 25 26 26 26 27 27 27 27 27 27 27 27 27 26 25
20 20 20 20 21 21 21 20 20 19 19 20 20 21 21 21 22 23 23 23 23 23 24 25 25 25 25 26 26 27 28 29 29 29 29 29 29 28 28 28 28 28 27
22 22 21 20 21 21 21 20 20 20 19 20 21 21 21 22 23 23 24 23 23 24 25 25 25 24 24 25 27 28 28 29 28 29 29 29 29 28 28 28 29 29 29
23 23 23 23 22 22 22 22 21 20 20 21 22 22 22 23 23 24 24 24 24 24 24 25 25 24 25 26 27 28 28 28 28 28 28 29 29 28 28 28 28 28 28
23 23 24 24 24 24 22 22 21 20 20 21 22 23 23 23 24 25 24 25 24 24 25 25 25 26 26 26 27 27 27 27 28 28 28 28 29 29 29 29 29 29 28
24 24 24 24 24 24 23 22 21 20 20 21 22 23 24 24 25 26 26 26 26 25 26 26 26 26 26 26 27 27 26 26 27 27 28 28 28 28 28 28 28 28 28
25 24 24 23 23 23 23 22 21 21 21 22 23 23 24 25 26 27 26 27 27 26 27 27 26 26 25 26 27 27 26 27 27 27 27 27 27 27 28 28 28 28 28
26 25 25 24 24 24 23 23 22 22 22 22 23 24 24 25 25 26 27 27 27 27 28 27 26 25 26 26 27 26 25 26 26 26 26 27 27 27 27 28 28 29 29
27 26 25 25 25 24 24 23 23 23 23 24 24 24 25 26 27 26 27 27 27 28 28 26 26 26 26 26 26 25 25 25 25 26 26 26 26 27 28 29 29 29 28
29 27 26 26 25 26 25 24 23 23 24 24 24 25 26 27 27 27 27 27 27 28 28 27 26 26 26 26 26 26 27 26 26 26 26 26 26 26 27 28 28 28 28
30 29 28 27 26 27 25 24 24 24 24 25 25 26 27 28 27 26 27 27 27 28 28 27 27 27 26 26 26 27 27 26 25 26 26 25 25 26 26 26 27 27 27
Wind_Direction
67 60 60 58 53 50 51 52 52 52 49 41 31 22 14 10 5 357 349 338 333 331 325 323 312 304 306 307 303 295 288 275 279 284 288 289 288 286 282 279 281 285 285
272 35 48 47 44 35 36 42 43 44 41 30 15 6 1 357 348 341 332 326 322 319 318 313 309 302 304 303 299 294 285 279 279 285 291 289 285 282 281 280 278 281 284
275 276 310 339 28 18 24 27 22 18 17 13 3 354 349 346 344 338 333 329 320 315 316 311 306 302 298 298 294 292 290 288 286 286 290 290 287 283 280 281 280 279 280
281 289 320 320 304 327 351 356 359 355 352 351 350 347 343 339 339 337 330 323 324 316 309 306 303 301 296 294 294 289 290 290 289 285 285 286 286 286 282 280 281 283 283
267 266 291 307 294 299 302 314 329 336 337 334 333 332 331 331 331 329 325 321 318 317 311 306 302 299 297 293 291 288 290 290 289 289 286 288 288 286 283 282 281 281 282
265 267 277 292 296 301 300 301 306 316 322 325 324 319 318 317 321 320 316 313 311 308 304 302 301 298 295 292 290 288 289 289 287 289 290 289 287 286 286 284 282 281 282
266 273 275 277 286 293 295 298 302 305 311 314 313 311 311 311 311 312 312 310 307 304 303 302 298 296 294 291 289 286 287 288 288 289 289 290 287 285 286 286 283 282 283
265 270 272 273 277 284 286 288 291 293 300 303 305 308 309 309 308 309 309 308 306 303 301 300 296 293 293 291 291 287 285 286 288 289 289 289 288 286 287 287 285 284 283
266 264 266 271 272 274 277 278 281 285 290 294 300 306 307 309 307 308 308 308 307 302 297 295 293 293 293 292 291 290 291 289 288 287 286 286 286 286 286 286 286 285 284
266 264 267 270 270 271 275 278 283 282 284 289 295 299 302 306 306 305 306 306 303 300 295 292 291 291 289 289 290 291 290 292 292 291 289 287 287 287 286 286 284 283 283
268 266 266 269 270 271 274 278 280 281 282 287 293 296 300 301 301 303 305 303 300 298 295 294 291 290 291 291 290 289 289 290 290 290 289 288 287 287 287 285 284 283 284
267 266 266 269 271 271 273 277 283 282 285 289 290 293 296 299 299 300 301 302 299 296 293 293 292 291 289 287 286 286 287 288 289 289 287 286 286 287 288 287 285 284 284
266 266 267 268 270 272 274 274 282 286 286 289 290 291 292 295 296 297 297 298 299 297 294 291 290 289 287 285 284 284 285 286 287 287 286 285 286 287 287 288 285 284 283
267 265 263 265 268 271 276 277 279 283 285 287 289 290 290 293 294 296 296 296 296 296 293 292 290 289 287 284 282 281 281 282 284 285 286 285 284 284 286 287 285 283 283
271 270 265 265 268 273 274 276 279 281 282 284 288 289 290 293 295 296 296 295 295 294 293 291 290 288 287 283 281 281 280 280 281 282 284 283 282 282 284 286 286 284 283
273 272 267 265 265 268 270 274 277 279 280 282 286 288 290 293 295 295 296 294 294 294 295 293 290 289 288 286 283 280 279 279 279 279 279 280 280 280 283 284 286 286 284
269 269 270 268 267 268 267 271 274 277 280 284 285 288 290 292 294 294 295 294 294 295 296 297 296 292 288 287 285 284 281 280 278 277 278 279 278 278 280 282 283 285 285
267 267 268 269 268 272 276 274 274 278 280 283 285 288 290 292 294 295 295 293 295 296 297 296 298 294 291 291 290 286 285 283 281 279 278 278 279 279 280 281 282 285 286
267 268 268 269 270 274 275 275 276 279 282 286 286 288 289 291 293 295 296 296 297 298 298 298 298 297 293 292 292 292 289 286 283 281 280 279 280 281 281 281 284 284 283
268 269 269 271 270 271 273 274 274 278 283 284 285 286 288 289 292 294 295 298 298 298 298 299 298 298 295 294 294 295 292 288 286 283 281 281 282 283 281 281 282 283 282
267 267 267 270 269 270 271 272 273 276 281 284 286 287 287 289 291 292 293 294 294 296 297 298 298 298 296 295 294 294 292 290 288 285 283 282 282 282 283 283 282 283 282
264 264 265 268 270 270 269 270 272 277 281 285 287 289 292 292 293 293 293 294 294 295 296 297 297 296 296 296 294 295 294 292 290 286 285 283 282 282 282 282 283 283 283
262 263 264 266 267 267 267 267 270 275 280 286 289 291 292 294 292 294 295 296 295 296 297 295 294 294 296 297 296 296 295 295 292 289 286 286 285 284 283 283 284 285 284
259 261 263 263 266 266 266 267 270 275 279 283 287 291 293 294 293 292 294 296 295 295 296 294 293 293 294 295 295 293 292 293 292 291 290 289 287 286 285 284 285 286 286
259 260 262 262 264 264 266 267 270 275 278 281 285 291 294 296 295 294 294 295 296 296 294 292 291 292 294 294 295 294 291 290 290 289 290 291 289 288 288 287 286 286 287
258 257 258 259 262 264 267 268 270 274 277 280 284 289 292 294 295 295 295 295 295 296 294 291 291 293 293 293 295 293 292 292 292 292 291 291 292 290 289 289 289 289 288
Height
5906 5905 5904 5904 5904 5903 5903 5902 5902 5901 5900 5900 5900 5899 5899 5898 5897 5897 5896 5895 5895 5894 5894 5894 5893 5893 5892 5892 5892 5891 5891 5891 5891 5890 5890 5889 5889 5889 5888 5888 5887 5887 5887
5905 5905 5904 5904 5904 5904 5903 5903 5902 5901 5901 5900 5900 5899 5899 5898 5897 5896 5895 5894 5894 5893 5893 5892 5892 5892 5891 5891 5890 5890 5890 5889 5889 5889 5888 5888 5888 5886 5886 5886 5885 5885 5884
5905 5904 5904 5904 5903 5903 5902 5902 5902 5901 5900 5900 5899 5899 5898 5897 5896 5895 5894 5893 5892 5892 5891 5891 5890 5890 5890 5889 5889 5888 5888 5887 5887 5887 5886 5886 5885 5884 5884 5883 5883 5882 5882
5904 5903 5903 5903 5902 5902 5902 5902 5901 5901 5900 5899 5899 5898 5897 5896 5895 5894 5893 5892 5892 5891 5890 5889 5889 5888 5888 5887 5887 5886 5885 5885 5884 5884 5883 5883 5882 5882 5881 5881 5880 5879 5879
5903 5903 5902 5902 5901 5901 5900 5900 5900 5900 5899 5898 5898 5897 5896 5895 5894 5893 5892 5891 5890 5889 5888 5888 5887 5886 5886 5885 5885 5884 5883 5883 5882 5881 5881 5880 5879 5878 5878 5877 5876 5876 5875
5901 5901 5901 5900 5900 5900 5899 5899 5899 5898 5898 5897 5896 5896 5895 5894 5893 5892 5890 5889 5888 5887 5886 5885 5885 5884 5883 5882 5882 5881 5881 5880 5879 5878 5878 5877 5876 5875 5874 5873 5872 5871 5871
5899 5899 5899 5898 5898 5897 5897 5897 5897 5896 5896 5895 5895 5894 5893 5892 5891 5890 5889 5887 5886 5885 5884 5883 5882 5881 5880 5880 5879 5878 5878 5877 5876 5875 5874 5873 5872 5871 5870 5869 5868 5867 5866
5897 5896 5896 5895 5895 5895 5895 5894 5894 5894 5893 5893 5892 5892 5891 5890 5889 5887 5886 5885 5884 5882 5881 5880 5879 5878 5877 5876 5876 5875 5874 5874 5873 5871 5870 5869 5868 5867 5866 5865 5863 5862 5862
5894 5894 5893 5893 5892 5892 5892 5892 5891 5891 5890 5890 5890 5889 5888 5887 5886 5884 5883 5882 5881 5880 5878 5877 5876 5875 5874 5873 5872 5871 5870 5869 5869 5867 5866 5865 5864 5863 5861 5860 5859 5858 5857
5890 5890 5890 5889 5889 5889 5889 5888 5888 5888 5887 5887 5886 5886 5885 5884 5882 5881 5880 5878 5877 5876 5874 5873 5872 5870 5869 5869 5868 5867 5866 5865 5864 5863 5862 5860 5859 5858 5856 5855 5854 5853 5852
5886 5886 5885 5885 5885 5885 5885 5884 5884 5883 5883 5883 5882 5882 5881 5880 5879 5877 5876 5874 5873 5871 5870 5869 5868 5866 5865 5864 5863 5862 5861 5860 5859 5858 5856 5855 5854 5852 5851 5850 5848 5847 5846
5881 5881 5881 5881 5881 5881 5881 5880 5880 5879 5879 5878 5878 5878 5877 5876 5874 5873 5871 5870 5868 5867 5866 5864 5863 5862 5860 5859 5858 5857 5856 5855 5854 5852 5851 5849 5848 5846 5845 5844 5843 5841 5840
5877 5877 5876 5877 5877 5877 5876 5876 5876 5875 5875 5874 5874 5873 5872 5871 5870 5868 5866 5864 5862 5861 5860 5858 5857 5856 5855 5853 5852 5851 5850 5849 5847 5846 5845 5844 5842 5840 5839 5838 5836 5835 5834
5872 5872 5872 5872 5872 5872 5872 5871 5871 5870 5870 5869 5868 5867 5866 5865 5864 5862 5860 5858 5856 5854 5853 5852 5851 5850 5848 5846 5845 5844 5843 5842 5841 5840 5839 5837 5836 5834 5833 5831 5830 5828 5827
5867 5867 5867 5867 5867 5867 5866 5866 5866 5865 5865 5864 5863 5862 5861 5859 5858 5856 5854 5852 5850 5848 5846 5845 5844 5842 5841 5839 5838 5837 5836 5835 5834 5833 5832 5830 5829 5828 5826 5825 5823 5821 5819
5861 5861 5861 5862 5862 5862 5861 5861 5860 5859 5859 5858 5857 5856 5855 5854 5852 5850 5848 5846 5844 5842 5840 5839 5837 5835 5834 5832 5831 5830 5829 5827 5826 5825 5824 5822 5821 5820 5819 5817 5815 5814 5812
5856 5856 5856 5855 5856 5856 5855 5854 5854 5854 5853 5853 5852 5850 5849 5848 5846 5844 5842 5840 5838 5836 5834 5832 5830 5828 5827 5825 5823 5822 5820 5819 5818 5817 5815 5814 5813 5812 5811 5809 5808 5806 5804
5850 5850 5850 5850 5849 5850 5849 5849 5848 5848 5848 5847 5846 5845 5843 5842 5840 5838 5836 5834 5832 5830 5828 5826 5823 5821 5819 5818 5816 5814 5812 5810 5809 5808 5807 5805 5804 5803 5802 5801 5800 5798 5797
5843 5844 5844 5844 5844 5844 5844 5843 5843 5842 5842 5841 5840 5839 5837 5836 5834 5832 5830 5828 5825 5823 5821 5819 5817 5815 5813 5810 5808 5806 5804 5802 5801 5799 5798 5797 5796 5795 5794 5793 5791 5790 5788
5837 5837 5837 5838 5837 5837 5837 5836 5837 5836 5836 5834 5833 5832 5831 5829 5828 5825 5823 5821 5819 5817 5815 5812 5810 5808 5806 5803 5801 5798 5796 5794 5793 5791 5790 5789 5787 5786 5785 5784 5783 5782 5781
5829 5830 5830 5831 5831 5831 5830 5830 5830 5830 5829 5828 5827 5826 5824 5823 5821 5818 5816 5814 5812 5810 5808 5805 5803 5800 5798 5796 5793 5791 5788 5786 5784 5783 5782 5780 5779 5778 5777 5776 5775 5774 5772
5822 5823 5823 5824 5824 5824 5824 5824 5824 5824 5823 5821 5820 5819 5817 5816 5813 5811 5809 5807 5805 5803 5800 5797 5795 5792 5790 5788 5785 5783 5781 5778 5776 5775 5774 5772 5771 5770 5769 5768 5766 5765 5764
5815 5815 5816 5816 5817 5817 5817 5817 5817 5816 5816 5815 5813 5812 5810 5808 5806 5804 5802 5799 5797 5795 5792 5789 5786 5784 5782 5780 5778 5776 5773 5771 5769 5767 5766 5764 5763 5762 5761 5759 5758 5756 5755
5806 5807 5808 5809 5809 5809 5809 5810 5809 5809 5809 5808 5806 5805 5803 5801 5799 5797 5795 5792 5790 5787 5784 5781 5779 5777 5775 5773 5771 5769 5766 5764 5762 5760 5758 5757 5755 5754 5752 5751 5749 5748 5747
5798 5799 5800 5801 5801 5801 5802 5802 5802 5802 5801 5800 5799 5798 5796 5794 5792 5790 5787 5785 5782 5779 5776 5774 5772 5770 5768 5766 5763 5761 5759 5757 5755 5753 5751 5749 5748 5746 5744 5743 5741 5740 5739
5788 5790 5791 5792 5794 5794 5794 5794 5794 5794 5794 5793 5792 5790 5789 5787 5785 5782 5780 5777 5775 5772 5768 5766 5764 5762 5760 5758 5756 5754 5752 5749 5748 5746 5744 5742 5740 5739 5737 5735 5734 5732 5731